Weather History for Hazlehurst, GA

Change the Weather History Date:

Friday, November 9, 2012

  Actual Average Record
Temperature  
Mean Temperature 52 °F -  
Max Temperature 88 °F 80 °F 95 °F (2013)
Min Temperature 35 °F 56 °F 42 °F (2013)
Degree Days  
Heating Degree Days 13    
Growing Degree Days 2 (Base 50)    
Moisture  
Dew Point 39 °F    
Average Humidity 73    
Maximum Humidity 100    
Minimum Humidity 30    
Precipitation  
Precipitation 0.00 in - - ()
Sea Level Pressure  
Sea Level Pressure 30.24 in    
Wind  
Wind Speed 1 mph ()    
Max Wind Speed 5 mph    
Max Gust Speed -    
Visibility 9.2 miles    
Events Fog    
Averages and records for this station are not official NWS values.
T = Trace of Precipitation, MM = Missing Value Source: Averaged Metar Reports

Daily Weather History Graph

Daily Weather History Graph

Search for Another Location

Airport:

Trip Planner

Search our weather history database for the weather conditions in past years. The results will help you decide how hot, cold, wet, or windy it might be!

Date:

Astronomy

Nov. 09, 2012 Rise Set
Actual Time 6:54 AM EST 5:34 PM EST
Civil Twilight 6:28 AM EST 5:59 PM EST
Nautical Twilight 5:59 AM EST 6:29 PM EST
Astronomical Twilight 5:30 AM EST 6:57 PM EST
Moon 2:08 AM EST (11/9) 2:32 PM EST (11/9)
Length of Visible Light 11h 31m
Length of Day
10h 40m
Waning Crescent, 23% of the Moon is Illuminated
Nov 9
Waning Crescent
Nov 13
New
Nov 20
First Quarter
Nov 28
Full
Dec 6
Last Quarter

Hourly Weather History & Observations

Time (EST) Temp. Windchill Dew Point Humidity Pressure Visibility Wind Dir Wind Speed Gust Speed Precip Events Conditions
12:15 AM 39.7 °F - 39.9 °F 100% 30.18 in 10.0 mi Calm Calm - N/A   Clear
12:35 AM 39.0 °F 36.8 °F 39.2 °F 100% 30.18 in 10.0 mi West 3.5 mph - N/A   Clear
12:55 AM 39.4 °F 37.2 °F 39.4 °F 100% 30.18 in 10.0 mi WSW 3.5 mph - N/A   Clear
1:15 AM 38.8 °F 36.5 °F 39.0 °F 100% 30.18 in 10.0 mi West 3.5 mph - N/A   Clear
1:35 AM 39.0 °F - 39.0 °F 100% 30.18 in 10.0 mi Calm Calm - N/A   Clear
1:55 AM 39.0 °F 36.8 °F 39.0 °F 100% 30.19 in 10.0 mi West 3.5 mph - N/A   Clear
2:15 AM 38.8 °F - 39.0 °F 100% 30.19 in 10.0 mi Calm Calm - N/A   Clear
2:35 AM 38.3 °F - 38.5 °F 100% 30.19 in 10.0 mi Calm Calm - N/A   Clear
2:55 AM 37.8 °F - 37.8 °F 100% 30.19 in 10.0 mi Calm Calm - N/A   Clear
3:15 AM 37.6 °F - 37.6 °F 100% 30.20 in 10.0 mi Calm Calm - N/A   Clear
3:35 AM 37.4 °F - 37.6 °F 100% 30.20 in 10.0 mi Calm Calm - N/A   Clear
3:55 AM 37.2 °F - 37.4 °F 100% 30.20 in 10.0 mi Calm Calm - N/A   Clear
4:15 AM 36.9 °F - 37.0 °F 100% 30.20 in 10.0 mi Calm Calm - N/A   Clear
4:35 AM 37.4 °F - 37.6 °F 100% 30.21 in 10.0 mi Calm Calm - N/A   Clear
4:55 AM 37.2 °F - 37.2 °F 100% 30.21 in 7.0 mi Calm Calm - N/A   Scattered Clouds
5:15 AM 36.5 °F - 36.7 °F 100% 30.22 in 10.0 mi Calm Calm - N/A   Clear
5:35 AM 36.5 °F - 36.7 °F 100% 30.22 in 7.0 mi Calm Calm - N/A   Clear
5:55 AM 36.0 °F - 36.1 °F 100% 30.23 in 10.0 mi Calm Calm - N/A   Clear
6:15 AM 35.8 °F - 36.0 °F 100% 30.23 in 2.5 mi Calm Calm - N/A   Scattered Clouds
6:35 AM 35.8 °F - 36.1 °F 100% 30.24 in 0.8 mi Calm Calm - N/A   Mostly Cloudy
6:55 AM 35.6 °F - 35.8 °F 100% 30.24 in 0.2 mi Calm Calm - N/A Fog Fog
7:15 AM 35.4 °F - 35.6 °F 100% 30.25 in 0.8 mi Calm Calm - N/A   Mostly Cloudy
7:35 AM 35.6 °F - 35.8 °F 100% 30.26 in 0.5 mi Calm Calm - N/A Fog Fog
7:55 AM 36.9 °F - 36.9 °F 100% 30.27 in 5.0 mi Calm Calm - N/A   Scattered Clouds
8:15 AM 39.7 °F - 39.7 °F 100% 30.28 in 10.0 mi Calm Calm - N/A   Clear
8:35 AM 42.6 °F - 41.2 °F 95% 30.29 in 10.0 mi Calm Calm - N/A   Clear
8:55 AM 45.9 °F - 41.7 °F 85% 30.29 in 10.0 mi Calm Calm - N/A   Clear
9:15 AM 48.0 °F - 41.2 °F 77% 30.30 in 10.0 mi Calm Calm - N/A   Clear
9:55 AM 52.0 °F - 40.8 °F 66% 30.31 in 10.0 mi Calm Calm - N/A   Clear
10:15 AM 54.7 °F - 41.7 °F 62% 30.31 in 10.0 mi Calm Calm - N/A   Clear
10:35 AM 56.5 °F - 42.3 °F 59% 30.31 in 10.0 mi Calm Calm - N/A   Clear
10:55 AM 58.1 °F - 42.1 °F 55% 30.30 in 10.0 mi NW 3.5 mph - N/A   Clear
11:15 AM 59.5 °F - 41.7 °F 52% 30.30 in 10.0 mi NNW 4.6 mph - N/A   Clear
11:35 AM 61.0 °F - 41.2 °F 48% 30.29 in 10.0 mi WSW 3.5 mph - N/A   Clear
11:55 AM 61.9 °F - 41.2 °F 47% 30.29 in 10.0 mi Calm Calm - N/A   Clear
12:15 PM 63.3 °F - 40.3 °F 43% 30.27 in 10.0 mi WNW 3.5 mph - N/A   Clear
12:35 PM 64.9 °F - 40.3 °F 40% 30.26 in 10.0 mi Calm Calm - N/A   Clear
12:55 PM 65.5 °F - 39.4 °F 38% 30.25 in 10.0 mi Calm Calm - N/A   Clear
1:15 PM 66.0 °F - 38.3 °F 36% 30.24 in 10.0 mi Calm Calm - N/A   Clear
1:35 PM 66.6 °F - 38.7 °F 36% 30.24 in 10.0 mi Calm Calm - N/A   Clear
1:55 PM 67.6 °F - 39.0 °F 35% 30.23 in 10.0 mi SW 3.5 mph - N/A   Clear
2:15 PM 68.0 °F - 37.8 °F 33% 30.22 in 10.0 mi NW 3.5 mph - N/A   Clear
2:35 PM 67.8 °F - 37.8 °F 33% 30.22 in 10.0 mi Calm Calm - N/A   Clear
2:55 PM 68.2 °F - 37.9 °F 33% 30.21 in 10.0 mi Calm Calm - N/A   Clear
3:15 PM 69.3 °F - 36.7 °F 30% 30.21 in 10.0 mi Calm Calm - N/A   Clear
3:35 PM 68.2 °F - 36.0 °F 31% 30.21 in 10.0 mi Calm Calm - N/A   Clear
3:55 PM 68.0 °F - 36.1 °F 31% 30.20 in 10.0 mi Calm Calm - N/A   Clear
4:15 PM 68.4 °F - 35.2 °F 30% 30.20 in 10.0 mi North 3.5 mph - N/A   Clear
4:35 PM 68.2 °F - 35.2 °F 30% 30.21 in 10.0 mi Calm Calm - N/A   Clear
4:55 PM 66.4 °F - 36.0 °F 33% 30.20 in 10.0 mi Calm Calm - N/A   Clear
5:15 PM 62.1 °F - 37.9 °F 41% 30.21 in 10.0 mi Calm Calm - N/A   Clear
5:35 PM 59.4 °F - 38.1 °F 45% 30.21 in 10.0 mi Calm Calm - N/A   Clear
5:55 PM 57.2 °F - 39.6 °F 52% 30.22 in 10.0 mi Calm Calm - N/A   Clear
6:15 PM 54.7 °F - 39.4 °F 56% 30.22 in 10.0 mi Calm Calm - N/A   Clear
6:35 PM 52.5 °F - 39.7 °F 62% 30.23 in 10.0 mi Calm Calm - N/A   Clear
6:55 PM 51.4 °F - 41.0 °F 68% 30.23 in 10.0 mi Calm Calm - N/A   Clear
7:15 PM 50.0 °F - 39.4 °F 67% 30.23 in 10.0 mi Calm Calm - N/A   Clear
7:35 PM 48.9 °F - 39.7 °F 71% 30.24 in 10.0 mi SSE 3.5 mph - N/A   Clear
7:55 PM 47.5 °F - 41.2 °F 79% 30.24 in 10.0 mi SSE 3.5 mph - N/A   Clear
8:15 PM 47.1 °F - 40.6 °F 78% 30.24 in 10.0 mi SSE 3.5 mph - N/A   Clear
8:35 PM 46.6 °F - 40.6 °F 80% 30.24 in 10.0 mi SSE 3.5 mph - N/A   Clear
8:55 PM 46.8 °F - 41.0 °F 80% 30.25 in 10.0 mi SSE 3.5 mph - N/A   Clear
9:15 PM 46.2 °F 44.1 °F 40.6 °F 81% 30.25 in 10.0 mi SSE 4.6 mph - N/A   Clear
9:35 PM 46.6 °F - 40.8 °F 80% 30.26 in 10.0 mi SSE 3.5 mph - N/A   Clear
10:15 PM 45.7 °F 44.4 °F 41.0 °F 84% 30.26 in 10.0 mi South 3.5 mph - N/A   Clear
10:35 PM 44.8 °F 43.3 °F 40.8 °F 86% 30.26 in 10.0 mi SSE 3.5 mph - N/A   Clear
10:55 PM 45.9 °F 43.6 °F 40.3 °F 81% 30.27 in 10.0 mi SSE 4.6 mph - N/A   Clear
11:15 PM 47.3 °F - 39.7 °F 75% 30.27 in 10.0 mi SSE 3.5 mph - N/A   Clear
11:35 PM 47.1 °F - 40.5 °F 78% 30.27 in 10.0 mi SSE 4.6 mph - N/A   Clear
11:55 PM 47.8 °F - 41.4 °F 78% 30.27 in 10.0 mi South 4.6 mph - N/A   Clear